WetterOnline ( https://www.wetteronline.de )

Wetter aktuell Ahaus

Aktuelles Wetter: Ahaus (46m)

6-stündlich | Neueste Meldungen
Ortszeit Temperatur Wetter
Mo, 15.07. 14:00 23.5° C wolkig
Mo, 15.07. 8:00 16.1° C wolkenlos
Mo, 15.07. 2:00 11.7° C wolkenlos
So, 14.07. 20:00 20.6° C bedeckt
So, 14.07. 14:00 21.5° C bewölkt
So, 14.07. 8:00 14.4° C leicht bewölkt
So, 14.07. 2:00 11.7° C wolkenlos
Sa, 13.07. 20:00 16.7° C bewölkt
Ortszeit Temperatur Wetter
Mo, 15.07. 17:00 24.6° C leicht bewölkt
Mo, 15.07. 16:40 24.7° C wolkig
Mo, 15.07. 16:30 24.9° C bewölkt
Mo, 15.07. 16:20 24.9° C bewölkt
Mo, 15.07. 16:10 25.4° C bewölkt
Mo, 15.07. 16:00 24.8° C leicht bewölkt
Mo, 15.07. 15:50 24.8° C wolkig
Mo, 15.07. 15:30 24.8° C leicht bewölkt
Mo, 15.07. 15:00 24.6° C fast wolkenlos
Mo, 15.07. 14:30 24.2° C leicht bewölkt
Mo, 15.07. 14:00 23.5° C wolkig
Ortszeit Relative Feuchte Sichtweite
Mo, 15.07. 14:00 48% 50 km
Mo, 15.07. 8:00 81% 35 km
Mo, 15.07. 2:00 98% 22 km
So, 14.07. 20:00 57% 60 km
So, 14.07. 14:00 58% 65 km
So, 14.07. 8:00 85% 25 km
So, 14.07. 2:00 90% 30 km
Sa, 13.07. 20:00 76% 55 km
Ortszeit Relative Feuchte Sichtweite
Mo, 15.07. 17:00 48% 55 km
Mo, 15.07. 16:40 45% -
Mo, 15.07. 16:30 46% 65 km
Mo, 15.07. 16:20 46% -
Mo, 15.07. 16:10 47% -
Mo, 15.07. 16:00 45% 55 km
Mo, 15.07. 15:50 45% -
Mo, 15.07. 15:30 50% 35 km
Mo, 15.07. 15:00 52% 50 km
Mo, 15.07. 14:30 50% >70 km
Mo, 15.07. 14:00 48% 50 km
Ortszeit Niederschlagsmenge Niederschlagsart
Mo, 15.07. 14:00 0.0 l/m2 in 6 Std. -
Mo, 15.07. 8:00 0.0 l/m2 in 12 Std. -
Mo, 15.07. 2:00 0.0 l/m2 in 6 Std. -
So, 14.07. 20:00 0.0 l/m2 in 12 Std. -
So, 14.07. 14:00 0.0 l/m2 in 6 Std. -
So, 14.07. 8:00 0.0 l/m2 in 12 Std. -
So, 14.07. 2:00 0.0 l/m2 in 6 Std. -
Sa, 13.07. 20:00 0.6 l/m2 in 12 Std. Regen
Ortszeit Niederschlagsmenge Niederschlagsart
Mo, 15.07. 17:00 0.0 l/m2 in 1 Std. -
Mo, 15.07. 16:40 keine Meldung -
Mo, 15.07. 16:30 0.0 l/m2 in 30 Min -
Mo, 15.07. 16:20 keine Meldung -
Mo, 15.07. 16:10 keine Meldung -
Mo, 15.07. 16:00 0.0 l/m2 in 1 Std. -
Mo, 15.07. 15:50 keine Meldung -
Mo, 15.07. 15:30 0.0 l/m2 in 30 Min -
Mo, 15.07. 15:00 0.0 l/m2 in 1 Std. -
Mo, 15.07. 14:30 0.0 l/m2 in 30 Min -
Mo, 15.07. 14:00 0.0 l/m2 in 1 Std. -
Ortszeit Stärke Spitze Richtung
km/h Bft. km/h Grad Sektor
Mo, 15.07. 14:00 4 1 25 100° O
Mo, 15.07. 8:00 7 2 11 150° SO
Mo, 15.07. 2:00 4 1 14 170° S
So, 14.07. 20:00 6 1 35 250° W
So, 14.07. 14:00 14 3 47 220° SW
So, 14.07. 8:00 7 2 14 180° S
So, 14.07. 2:00 7 2 22 220° SW
Sa, 13.07. 20:00 11 2 48 230° SW
Ortszeit Stärke Spitze Richtung
km/h Bft. km/h Grad Sektor
Mo, 15.07. 17:00 7 2 18 130° SO
Mo, 15.07. 16:40 11 2 - 130° SO
Mo, 15.07. 16:30 7 2 14 90° O
Mo, 15.07. 16:20 7 2 - 90° O
Mo, 15.07. 16:10 7 2 - 120° SO
Mo, 15.07. 16:00 7 2 25 110° O
Mo, 15.07. 15:50 7 2 - 110° O
Mo, 15.07. 15:30 9 2 19 160° S
Mo, 15.07. 15:00 7 2 22 170° S
Mo, 15.07. 14:30 9 2 20 150° SO
Mo, 15.07. 14:00 4 1 18 100° O
Ortszeit Untergrenze Bedeckung Gattung
total tief tief mittel hoch
Mo, 15.07. 14:00 6000 m 8/8 3/8 - - -
Mo, 15.07. 8:00 - 0/8 0/8 - - -
Mo, 15.07. 2:00 - 0/8 0/8 - - -
So, 14.07. 20:00 6600 m 8/8 8/8 - - -
So, 14.07. 14:00 1290 m 7/8 7/8 - - -
So, 14.07. 8:00 1140 m 8/8 1/8 - - -
So, 14.07. 2:00 - 0/8 0/8 - - -
Sa, 13.07. 20:00 810 m 7/8 7/8 - - -
Ortszeit Bedeckungsgrad in Achtel und Wolkenuntergrenze
Mo, 15.07. 17:00 5(7200m) 6(9000m)
Mo, 15.07. 16:40 5
Mo, 15.07. 16:30 6(6900m) 7(7800m) 7(10500m)
Mo, 15.07. 16:20 6(6900m) 7(7800m) 7(10500m)
Mo, 15.07. 16:10 7
Mo, 15.07. 16:00 7(7200m)
Mo, 15.07. 15:50 7(7200m)
Mo, 15.07. 15:30 5(7200m)
Mo, 15.07. 15:00 1(7800m)
Mo, 15.07. 14:30 1(7500m) 3(9000m)
Mo, 15.07. 14:00 3(6000m) 8(7200m) 8(8400m)
Ortszeit Luftdruck NN (hPa) Tendenz (hPa in 3 Std.)
Mo, 15.07. 14:00 1012 - 0,8
Mo, 15.07. 8:00 1013 + 0,1
Mo, 15.07. 2:00 1013 + 0,3
So, 14.07. 20:00 1012 + 0,1
So, 14.07. 14:00 1012 - 0,4
So, 14.07. 8:00 1013 + 0,5
So, 14.07. 2:00 1013 0,0
Sa, 13.07. 20:00 1013 + 0,3
Ortszeit Luftdruck NN (hPa) Tendenz (hPa in 3 Std.)
Mo, 15.07. 17:00 1010 - 1,8
Mo, 15.07. 16:40 1010 keine Meldung
Mo, 15.07. 16:30 1010 - 1,7
Mo, 15.07. 16:20 1010 keine Meldung
Mo, 15.07. 16:10 1011 keine Meldung
Mo, 15.07. 16:00 1011 - 1,5
Mo, 15.07. 15:50 1011 keine Meldung
Mo, 15.07. 15:30 1011 - 1,4
Mo, 15.07. 15:00 1011 - 1,3
Mo, 15.07. 14:30 1011 - 1,2
Mo, 15.07. 14:00 1012 - 0,8
Ortszeit Schneehöhe (cm)
Mo, 15.07. 14:00 0
Mo, 15.07. 8:00 0
Mo, 15.07. 2:00 0
So, 14.07. 20:00 0
So, 14.07. 14:00 0
So, 14.07. 8:00 0
So, 14.07. 2:00 0
Sa, 13.07. 20:00 0
Ortszeit Schneehöhe (cm)
Mo, 15.07. 17:00 0
Mo, 15.07. 16:40 -
Mo, 15.07. 16:30 0
Mo, 15.07. 16:20 0
Mo, 15.07. 16:10 -
Mo, 15.07. 16:00 0
Mo, 15.07. 15:50 0
Mo, 15.07. 15:30 0
Mo, 15.07. 15:00 0
Mo, 15.07. 14:30 0
Mo, 15.07. 14:00 0
Link zu dieser Seite / Seite empfehlen

Das Wetter in ...